Location: Banff
(51.1667°N, 115.5667°W)
Time: 08:18:31
(UTC+00:00)

Envisat - Pass Details

Date: 28 November 2022
Orbit: 763 x 765 km, 98.2° (Epoch: 28 January)

Event Time Altitude Azimuth Distance (km) Brightness Sun altitude
Rises 00:24:03 0° 213° (SSW) 3,221 7.4 -6.7°
Reaches altitude 10° 00:27:13 10° 234° (SW) 2,302 7.1 -7.1°
Maximum altitude 00:30:22 16° 273° (W) 1,897 6.1 -7.6°
Drops below altitude 10° 00:33:33 10° 312° (NW) 2,313 5.8 -8.0°
Sets 00:36:45 0° 333° (NNW) 3,246 6.3 -8.5°
